Location: Newark
(25.0000°N, 73.5000°E)
Time: 18:39:50
(UTC+00:00)

Altair - Pass Details

Date: 04 March 2021
Orbit: 1501 x 1683 km, 47.2° (Epoch: 10 April)

Event Time Altitude Azimuth Distance (km) Brightness Sun altitude
Rises 22:56:37 0° 289° (WNW) 4,840 - -34.4°
Reaches altitude 10° 23:01:17 10° 271° (W) 3,883 - -33.3°
Maximum altitude 23:06:52 17° 236° (SW) 3,409 - -32.1°
Drops below altitude 10° 23:12:31 10° 201° (SSW) 3,927 - -30.8°
Exits shadow 23:13:40 - 195° (SSW) 4,129 9.5 -30.6°
Sets 23:17:23 0° 182° (S) 4,920 10.1 -29.7°
